Main page
METAR-TAF:

METAR-TAF

Airports :

Valencia, Spain

latitude: 39-37-26N, longitude: 0-28-26W, elevation: 127 m

Current weather observation

The report was made 1 hour and 7 minutes ago, at 22:00 UTC
Wind 3 kt from the North
Temperature 22°C
Humidity 65%
Pressure 1018 hPa
Visibility 10 km or more

METAR: LEBT 232200Z AUTO 35003KT 9999 // NCD 22/15 Q1018

Time: 01:07 (23:07 UTC)


TAF: missing

Weather observations and forecasts of more than 4000 airports (METAR and TAF reports).

The available stations are represented by yellow and red dots on the map.

Hover mouse over dot to see the name of the station.

Then click to see weather observations and forecasts.

To change the map : click on the green buttons with a black cross to zoom in, on the green button with a dash to zoom out, or on the green arrows for adjacent maps.


METAR-TAF: